Time,TemperatureF,DewpointF,PressureIn,WindDirection,WindDirectionDegrees,WindSpeedMPH,WindSpeedGustMPH,Humidity,HourlyPrecipIn,Conditions,Clouds,dailyrainin,SolarRadiationWatts/m^2,SoftwareType,DateUTC
2013-01-20 00:00:00,41.7,33.3,29.92,WSW,250,1.0,5.0,72,0.00,,,0.00,0,HR-IXP-WINDi_r2_v1.2,2013-01-20 05:00:00,
2013-01-20 00:05:00,42.0,33.2,29.92,WNW,292,1.0,4.0,71,0.00,,,0.00,0,HR-IXP-WINDi_r2_v1.2,2013-01-20 05:05:00,
2013-01-20 00:10:00,42.2,33.4,29.91,SE,125,0.0,3.0,71,0.00,,,0.00,0,HR-IXP-WINDi_r2_v1.2,2013-01-20 05:10:00,
2013-01-20 00:15:00,42.2,33.1,29.91,West,272,1.0,3.0,70,0.00,,,0.00,0,HR-IXP-WINDi_r2_v1.2,2013-01-20 05:15:00,
2013-01-20 00:20:00,42.4,33.3,29.91,ENE,59,0.0,2.0,70,0.00,,,0.00,0,HR-IXP-WINDi_r2_v1.2,2013-01-20 05:20:00,
2013-01-20 00:25:00,42.4,33.3,29.91,ENE,66,0.0,2.0,70,0.00,,,0.00,0,HR-IXP-WINDi_r2_v1.2,2013-01-20 05:25:00,
2013-01-20 00:30:00,42.5,33.4,29.90,West,274,0.0,2.0,70,0.00,,,0.00,0,HR-IXP-WINDi_r2_v1.2,2013-01-20 05:30:00,
2013-01-20 00:36:00,42.5,33.4,29.90,WSW,250,0.0,7.0,70,0.00,,,0.00,0,HR-IXP-WINDi_r2_v1.2,2013-01-20 05:36:00,
2013-01-20 00:41:00,42.6,33.1,29.90,SSW,208,1.0,7.0,69,0.00,,,0.00,0,HR-IXP-WINDi_r2_v1.2,2013-01-20 05:41:00,
2013-01-20 00:46:00,42.6,33.1,29.90,ENE,62,0.0,4.0,69,0.00,,,0.00,0,HR-IXP-WINDi_r2_v1.2,2013-01-20 05:46:00,
2013-01-20 00:51:00,42.7,33.2,29.90,West,269,0.0,2.0,69,0.00,,,0.00,0,HR-IXP-WINDi_r2_v1.2,2013-01-20 05:51:00,
2013-01-20 00:56:00,42.8,33.3,29.89,West,267,1.0,3.0,69,0.00,,,0.00,0,HR-IXP-WINDi_r2_v1.2,2013-01-20 05:56:00,
2013-01-20 01:01:00,42.8,33.3,29.90,WSW,252,1.0,3.0,69,0.00,,,0.00,0,HR-IXP-WINDi_r2_v1.2,2013-01-20 06:01:00,
2013-01-20 01:07:00,42.9,33.4,29.89,WSW,244,1.0,3.0,69,0.00,,,0.00,0,HR-IXP-WINDi_r2_v1.2,2013-01-20 06:07:00,
2013-01-20 01:12:00,42.9,33.4,29.88,WNW,284,2.0,3.0,69,0.00,,,0.00,0,HR-IXP-WINDi_r2_v1.2,2013-01-20 06:12:00,
2013-01-20 01:17:00,43.0,33.1,29.88,South,176,1.0,4.0,68,0.00,,,0.00,0,HR-IXP-WINDi_r2_v1.2,2013-01-20 06:17:00,
2013-01-20 01:22:00,43.1,33.2,29.88,WSW,252,0.0,4.0,68,0.00,,,0.00,0,HR-IXP-WINDi_r2_v1.2,2013-01-20 06:22:00,
2013-01-20 01:27:00,43.2,33.3,29.87,West,263,0.0,4.0,68,0.00,,,0.00,0,HR-IXP-WINDi_r2_v1.2,2013-01-20 06:27:00,
2013-01-20 01:32:00,43.3,33.0,29.88,NW,315,0.0,4.0,67,0.00,,,0.00,0,HR-IXP-WINDi_r2_v1.2,2013-01-20 06:32:00,
2013-01-20 01:37:00,43.4,33.1,29.87,ENE,61,0.0,2.0,67,0.00,,,0.00,0,HR-IXP-WINDi_r2_v1.2,2013-01-20 06:37:00,
2013-01-20 01:43:00,43.5,33.2,29.87,SW,226,0.0,6.0,67,0.00,,,0.00,0,HR-IXP-WINDi_r2_v1.2,2013-01-20 06:43:00,
2013-01-20 01:48:00,43.6,33.3,29.87,SW,229,0.0,6.0,67,0.00,,,0.00,0,HR-IXP-WINDi_r2_v1.2,2013-01-20 06:48:00,
2013-01-20 01:53:00,43.7,33.1,29.87,SW,225,1.0,6.0,66,0.00,,,0.00,0,HR-IXP-WINDi_r2_v1.2,2013-01-20 06:53:00,
2013-01-20 01:58:00,43.8,33.2,29.87,WNW,293,0.0,6.0,66,0.00,,,0.00,0,HR-IXP-WINDi_r2_v1.2,2013-01-20 06:58:00,
2013-01-20 02:03:00,43.9,32.9,29.86,East,81,0.0,4.0,65,0.00,,,0.00,0,HR-IXP-WINDi_r2_v1.2,2013-01-20 07:03:00,
2013-01-20 02:08:00,44.0,33.0,29.86,West,277,1.0,4.0,65,0.00,,,0.00,0,HR-IXP-WINDi_r2_v1.2,2013-01-20 07:08:00,
2013-01-20 02:14:00,44.1,32.7,29.85,East,101,0.0,12.0,64,0.00,,,0.00,0,HR-IXP-WINDi_r2_v1.2,2013-01-20 07:14:00,
2013-01-20 02:19:00,44.1,32.7,29.85,West,276,1.0,12.0,64,0.00,,,0.00,0,HR-IXP-WINDi_r2_v1.2,2013-01-20 07:19:00,
2013-01-20 02:24:00,44.1,32.7,29.86,WNW,284,1.0,4.0,64,0.00,,,0.00,0,HR-IXP-WINDi_r2_v1.2,2013-01-20 07:24:00,
2013-01-20 02:29:00,44.0,32.6,29.85,SW,230,0.0,4.0,64,0.00,,,0.00,0,HR-IXP-WINDi_r2_v1.2,2013-01-20 07:29:00,
2013-01-20 02:34:00,44.0,32.6,29.85,ESE,106,0.0,2.0,64,0.00,,,0.00,0,HR-IXP-WINDi_r2_v1.2,2013-01-20 07:34:00,
2013-01-20 02:39:00,43.9,32.5,29.85,SW,233,3.0,4.0,64,0.00,,,0.00,0,HR-IXP-WINDi_r2_v1.2,2013-01-20 07:39:00,
2013-01-20 02:44:00,43.8,32.4,29.84,SW,223,1.0,4.0,64,0.00,,,0.00,0,HR-IXP-WINDi_r2_v1.2,2013-01-20 07:44:00,
2013-01-20 02:50:00,43.7,32.3,29.85,West,269,1.0,4.0,64,0.00,,,0.00,0,HR-IXP-WINDi_r2_v1.2,2013-01-20 07:50:00,
2013-01-20 02:55:00,43.7,32.3,29.84,SSW,192,0.0,3.0,64,0.00,,,0.00,0,HR-IXP-WINDi_r2_v1.2,2013-01-20 07:55:00,
2013-01-20 03:00:00,43.6,32.2,29.84,SW,236,0.0,3.0,64,0.00,,,0.00,0,HR-IXP-WINDi_r2_v1.2,2013-01-20 08:00:00,
2013-01-20 03:05:00,43.5,32.5,29.84,West,267,0.0,2.0,65,0.00,,,0.00,0,HR-IXP-WINDi_r2_v1.2,2013-01-20 08:05:00,
2013-01-20 03:11:00,43.4,32.4,29.83,West,270,0.0,4.0,65,0.00,,,0.00,0,HR-IXP-WINDi_r2_v1.2,2013-01-20 08:11:00,
2013-01-20 03:16:00,43.4,32.4,29.83,West,260,0.0,4.0,65,0.00,,,0.00,0,HR-IXP-WINDi_r2_v1.2,2013-01-20 08:16:00,
2013-01-20 03:21:00,43.3,32.3,29.82,WSW,251,0.0,2.0,65,0.00,,,0.00,0,HR-IXP-WINDi_r2_v1.2,2013-01-20 08:21:00,
2013-01-20 03:26:00,43.2,32.6,29.82,NNE,17,0.0,3.0,66,0.00,,,0.00,0,HR-IXP-WINDi_r2_v1.2,2013-01-20 08:26:00,
2013-01-20 03:32:00,43.2,32.6,29.81,West,261,0.0,3.0,66,0.00,,,0.00,0,HR-IXP-WINDi_r2_v1.2,2013-01-20 08:32:00,
2013-01-20 03:37:00,43.1,32.5,29.81,West,262,1.0,3.0,66,0.00,,,0.00,0,HR-IXP-WINDi_r2_v1.2,2013-01-20 08:37:00,
2013-01-20 03:42:00,43.0,32.4,29.81,WSW,258,1.0,3.0,66,0.00,,,0.00,0,HR-IXP-WINDi_r2_v1.2,2013-01-20 08:42:00,
2013-01-20 03:47:00,42.9,32.3,29.81,West,274,0.0,3.0,66,0.00,,,0.00,0,HR-IXP-WINDi_r2_v1.2,2013-01-20 08:47:00,
2013-01-20 03:52:00,42.8,32.6,29.81,West,261,0.0,3.0,67,0.00,,,0.00,0,HR-IXP-WINDi_r2_v1.2,2013-01-20 08:52:00,
2013-01-20 03:58:00,42.7,32.5,29.81,West,262,0.0,3.0,67,0.00,,,0.00,0,HR-IXP-WINDi_r2_v1.2,2013-01-20 08:58:00,
2013-01-20 04:03:00,42.7,32.8,29.80,West,264,1.0,2.0,68,0.00,,,0.00,0,HR-IXP-WINDi_r2_v1.2,2013-01-20 09:03:00,
2013-01-20 04:08:00,42.6,32.7,29.79,NNW,340,0.0,4.0,68,0.00,,,0.00,0,HR-IXP-WINDi_r2_v1.2,2013-01-20 09:08:00,
2013-01-20 04:13:00,42.5,33.0,29.79,WSW,244,0.0,4.0,69,0.00,,,0.00,0,HR-IXP-WINDi_r2_v1.2,2013-01-20 09:13:00,
2013-01-20 04:18:00,42.4,32.9,29.78,West,259,0.0,4.0,69,0.00,,,0.00,0,HR-IXP-WINDi_r2_v1.2,2013-01-20 09:18:00,
2013-01-20 04:24:00,42.4,32.9,29.78,NW,307,1.0,3.0,69,0.00,,,0.00,0,HR-IXP-WINDi_r2_v1.2,2013-01-20 09:24:00,
2013-01-20 04:29:00,42.4,33.3,29.78,NE,38,0.0,3.0,70,0.00,,,0.00,0,HR-IXP-WINDi_r2_v1.2,2013-01-20 09:29:00,
2013-01-20 04:34:00,42.4,33.3,29.78,WNW,295,1.0,4.0,70,0.00,,,0.00,0,HR-IXP-WINDi_r2_v1.2,2013-01-20 09:34:00,
2013-01-20 04:39:00,42.4,33.3,29.78,SSW,211,0.0,7.0,70,0.00,,,0.00,0,HR-IXP-WINDi_r2_v1.2,2013-01-20 09:39:00,
2013-01-20 04:45:00,42.4,33.3,29.77,West,279,2.0,7.0,70,0.00,,,0.00,0,HR-IXP-WINDi_r2_v1.2,2013-01-20 09:45:00,
2013-01-20 04:50:00,42.4,33.3,29.78,South,169,0.0,4.0,70,0.00,,,0.00,0,HR-IXP-WINDi_r2_v1.2,2013-01-20 09:50:00,
2013-01-20 04:55:00,42.4,33.6,29.77,WSW,257,0.0,6.0,71,0.00,,,0.00,0,HR-IXP-WINDi_r2_v1.2,2013-01-20 09:55:00,
2013-01-20 05:00:00,42.4,33.6,29.77,West,277,1.0,6.0,71,0.00,,,0.00,0,HR-IXP-WINDi_r2_v1.2,2013-01-20 10:00:00,
2013-01-20 05:06:00,42.4,33.6,29.77,West,278,0.0,2.0,71,0.00,,,0.00,0,HR-IXP-WINDi_r2_v1.2,2013-01-20 10:06:00,
2013-01-20 05:11:00,42.3,33.5,29.76,ENE,75,0.0,4.0,71,0.00,,,0.00,0,HR-IXP-WINDi_r2_v1.2,2013-01-20 10:11:00,
2013-01-20 05:16:00,42.3,33.5,29.76,West,271,0.0,4.0,71,0.00,,,0.00,0,HR-IXP-WINDi_r2_v1.2,2013-01-20 10:16:00,
2013-01-20 05:21:00,42.2,33.4,29.75,WSW,254,2.0,4.0,71,0.00,,,0.00,0,HR-IXP-WINDi_r2_v1.2,2013-01-20 10:21:00,
2013-01-20 05:26:00,42.2,33.4,29.75,ESE,107,1.0,4.0,71,0.00,,,0.00,0,HR-IXP-WINDi_r2_v1.2,2013-01-20 10:26:00,
2013-01-20 05:32:00,42.2,33.4,29.75,SW,229,2.0,4.0,71,0.00,,,0.00,0,HR-IXP-WINDi_r2_v1.2,2013-01-20 10:32:00,
2013-01-20 05:37:00,42.1,33.3,29.74,West,269,4.0,8.0,71,0.00,,,0.00,0,HR-IXP-WINDi_r2_v1.2,2013-01-20 10:37:00,
2013-01-20 05:43:00,42.1,33.3,29.73,South,175,0.0,8.0,71,0.00,,,0.00,0,HR-IXP-WINDi_r2_v1.2,2013-01-20 10:43:00,
2013-01-20 05:48:00,42.1,33.3,29.73,WSW,248,1.0,6.0,71,0.00,,,0.00,0,HR-IXP-WINDi_r2_v1.2,2013-01-20 10:48:00,
2013-01-20 05:54:00,42.1,33.3,29.73,ENE,63,0.0,5.0,71,0.00,,,0.00,0,HR-IXP-WINDi_r2_v1.2,2013-01-20 10:54:00,
2013-01-20 05:59:00,42.1,33.3,29.73,SW,232,1.0,7.0,71,0.00,,,0.00,0,HR-IXP-WINDi_r2_v1.2,2013-01-20 10:59:00,
2013-01-20 06:05:00,42.0,33.2,29.72,South,181,0.0,7.0,71,0.00,,,0.00,0,HR-IXP-WINDi_r2_v1.2,2013-01-20 11:05:00,
2013-01-20 06:10:00,42.0,33.2,29.72,WNW,296,2.0,7.0,71,0.00,,,0.00,0,HR-IXP-WINDi_r2_v1.2,2013-01-20 11:10:00,
2013-01-20 06:15:00,42.0,33.2,29.71,West,259,2.0,6.0,71,0.00,,,0.00,0,HR-IXP-WINDi_r2_v1.2,2013-01-20 11:15:00,
2013-01-20 06:20:00,41.9,33.2,29.71,WNW,291,0.0,4.0,71,0.00,,,0.00,0,HR-IXP-WINDi_r2_v1.2,2013-01-20 11:20:00,
2013-01-20 06:26:00,41.9,33.2,29.71,WSW,238,0.0,3.0,71,0.00,,,0.00,0,HR-IXP-WINDi_r2_v1.2,2013-01-20 11:26:00,
2013-01-20 06:31:00,41.9,33.2,29.71,West,270,0.0,4.0,71,0.00,,,0.00,0,HR-IXP-WINDi_r2_v1.2,2013-01-20 11:31:00,
2013-01-20 06:36:00,41.9,33.2,29.71,SE,146,1.0,6.0,71,0.00,,,0.00,0,HR-IXP-WINDi_r2_v1.2,2013-01-20 11:36:00,
2013-01-20 06:41:00,41.9,33.2,29.71,WSW,246,1.0,6.0,71,0.00,,,0.00,0,HR-IXP-WINDi_r2_v1.2,2013-01-20 11:41:00,
2013-01-20 06:47:00,42.0,33.2,29.71,SW,236,1.0,6.0,71,0.00,,,0.00,0,HR-IXP-WINDi_r2_v1.2,2013-01-20 11:47:00,
2013-01-20 06:52:00,41.9,33.2,29.71,WSW,258,1.0,7.0,71,0.00,,,0.00,0,HR-IXP-WINDi_r2_v1.2,2013-01-20 11:52:00,
2013-01-20 06:57:00,41.9,33.2,29.70,SW,220,3.0,7.0,71,0.00,,,0.00,0,HR-IXP-WINDi_r2_v1.2,2013-01-20 11:57:00,
2013-01-20 07:02:00,41.9,33.2,29.71,West,279,1.0,7.0,71,0.00,,,0.00,0,HR-IXP-WINDi_r2_v1.2,2013-01-20 12:02:00,
2013-01-20 07:08:00,41.9,33.2,29.71,West,272,0.0,7.0,71,0.00,,,0.00,0,HR-IXP-WINDi_r2_v1.2,2013-01-20 12:08:00,
2013-01-20 07:13:00,41.8,33.1,29.71,ESE,102,0.0,9.0,71,0.00,,,0.00,5,HR-IXP-WINDi_r2_v1.2,2013-01-20 12:13:00,
2013-01-20 07:18:00,41.8,33.1,29.70,WSW,238,1.0,9.0,71,0.00,,,0.00,7,HR-IXP-WINDi_r2_v1.2,2013-01-20 12:18:00,
2013-01-20 07:23:00,41.8,33.1,29.70,West,272,2.0,6.0,71,0.00,,,0.00,9,HR-IXP-WINDi_r2_v1.2,2013-01-20 12:23:00,
2013-01-20 07:28:00,41.8,33.1,29.70,SSE,155,1.0,9.0,71,0.00,,,0.00,11,HR-IXP-WINDi_r2_v1.2,2013-01-20 12:28:00,
2013-01-20 07:33:00,41.8,33.1,29.70,SE,128,2.0,9.0,71,0.00,,,0.00,12,HR-IXP-WINDi_r2_v1.2,2013-01-20 12:33:00,
2013-01-20 07:39:00,41.8,33.1,29.69,WNW,298,2.0,7.0,71,0.00,,,0.00,16,HR-IXP-WINDi_r2_v1.2,2013-01-20 12:39:00,
2013-01-20 07:44:00,41.9,33.2,29.69,WSW,248,0.0,7.0,71,0.00,,,0.00,18,HR-IXP-WINDi_r2_v1.2,2013-01-20 12:44:00,
2013-01-20 07:49:00,41.9,33.2,29.69,NE,37,1.0,6.0,71,0.00,,,0.00,21,HR-IXP-WINDi_r2_v1.2,2013-01-20 12:49:00,
2013-01-20 07:54:00,42.0,33.2,29.68,SSW,208,3.0,6.0,71,0.00,,,0.00,25,HR-IXP-WINDi_r2_v1.2,2013-01-20 12:54:00,
2013-01-20 08:00:00,42.1,33.0,29.68,North,11,1.0,6.0,70,0.00,,,0.00,33,HR-IXP-WINDi_r2_v1.2,2013-01-20 13:00:00,
2013-01-20 08:05:00,42.3,33.2,29.68,SE,144,1.0,6.0,70,0.00,,,0.00,60,HR-IXP-WINDi_r2_v1.2,2013-01-20 13:05:00,
2013-01-20 08:10:00,42.6,33.1,29.68,WSW,244,3.0,6.0,69,0.00,,,0.00,178,HR-IXP-WINDi_r2_v1.2,2013-01-20 13:10:00,
2013-01-20 08:15:00,43.0,33.5,29.68,WNW,288,4.0,7.0,69,0.00,,,0.00,200,HR-IXP-WINDi_r2_v1.2,2013-01-20 13:15:00,
2013-01-20 08:20:00,43.8,33.2,29.67,WNW,286,3.0,9.0,66,0.00,,,0.00,220,HR-IXP-WINDi_r2_v1.2,2013-01-20 13:20:00,
2013-01-20 08:26:00,44.4,33.3,29.68,WSW,244,5.0,9.0,65,0.00,,,0.00,239,HR-IXP-WINDi_r2_v1.2,2013-01-20 13:26:00,
2013-01-20 08:31:00,44.8,33.3,29.67,WSW,242,4.0,9.0,64,0.00,,,0.00,264,HR-IXP-WINDi_r2_v1.2,2013-01-20 13:31:00,
2013-01-20 08:36:00,45.2,33.3,29.67,South,178,2.0,9.0,63,0.00,,,0.00,287,HR-IXP-WINDi_r2_v1.2,2013-01-20 13:36:00,
2013-01-20 08:42:00,45.7,33.0,29.68,WNW,288,2.0,9.0,61,0.00,,,0.00,304,HR-IXP-WINDi_r2_v1.2,2013-01-20 13:42:00,
2013-01-20 08:47:00,46.2,33.1,29.67,WSW,247,1.0,6.0,60,0.00,,,0.00,318,HR-IXP-WINDi_r2_v1.2,2013-01-20 13:47:00,
2013-01-20 08:52:00,46.3,32.7,29.67,NNE,24,2.0,7.0,59,0.00,,,0.00,334,HR-IXP-WINDi_r2_v1.2,2013-01-20 13:52:00,
2013-01-20 08:57:00,46.7,33.1,29.68,WSW,243,0.0,9.0,59,0.00,,,0.00,348,HR-IXP-WINDi_r2_v1.2,2013-01-20 13:57:00,
2013-01-20 09:03:00,47.2,32.7,29.67,WSW,257,4.0,10.0,57,0.00,,,0.00,366,HR-IXP-WINDi_r2_v1.2,2013-01-20 14:03:00,
2013-01-20 09:08:00,47.7,32.7,29.67,NE,41,1.0,10.0,56,0.00,,,0.00,380,HR-IXP-WINDi_r2_v1.2,2013-01-20 14:08:00,
2013-01-20 09:13:00,48.0,32.6,29.67,ENE,64,2.0,8.0,55,0.00,,,0.00,390,HR-IXP-WINDi_r2_v1.2,2013-01-20 14:13:00,
2013-01-20 09:18:00,48.4,32.5,29.67,SW,232,5.0,8.0,54,0.00,,,0.00,408,HR-IXP-WINDi_r2_v1.2,2013-01-20 14:18:00,
2013-01-20 09:23:00,48.5,32.1,29.67,SSW,207,5.0,9.0,53,0.00,,,0.00,420,HR-IXP-WINDi_r2_v1.2,2013-01-20 14:23:00,
2013-01-20 09:28:00,49.0,32.6,29.67,SW,226,3.0,9.0,53,0.00,,,0.00,434,HR-IXP-WINDi_r2_v1.2,2013-01-20 14:28:00,
2013-01-20 09:34:00,49.8,32.4,29.67,West,263,0.0,6.0,51,0.00,,,0.00,448,HR-IXP-WINDi_r2_v1.2,2013-01-20 14:34:00,
2013-01-20 09:39:00,50.3,32.3,29.67,West,277,4.0,7.0,50,0.00,,,0.00,459,HR-IXP-WINDi_r2_v1.2,2013-01-20 14:39:00,
2013-01-20 09:44:00,50.8,32.3,29.67,South,185,3.0,7.0,49,0.00,,,0.00,469,HR-IXP-WINDi_r2_v1.2,2013-01-20 14:44:00,
2013-01-20 09:49:00,51.0,32.0,29.66,WSW,249,1.0,7.0,48,0.00,,,0.00,483,HR-IXP-WINDi_r2_v1.2,2013-01-20 14:49:00,
2013-01-20 09:55:00,51.2,31.6,29.66,WNW,288,7.0,7.0,47,0.00,,,0.00,496,HR-IXP-WINDi_r2_v1.2,2013-01-20 14:55:00,
2013-01-20 10:00:00,51.5,31.9,29.66,WNW,290,3.0,9.0,47,0.00,,,0.00,508,HR-IXP-WINDi_r2_v1.2,2013-01-20 15:00:00,
2013-01-20 10:05:00,51.8,31.7,29.66,West,279,6.0,11.0,46,0.00,,,0.00,515,HR-IXP-WINDi_r2_v1.2,2013-01-20 15:05:00,
2013-01-20 10:10:00,52.4,31.7,29.65,WSW,240,1.0,12.0,45,0.00,,,0.00,526,HR-IXP-WINDi_r2_v1.2,2013-01-20 15:10:00,
2013-01-20 10:16:00,52.6,31.8,29.65,NNE,13,3.0,12.0,45,0.00,,,0.00,536,HR-IXP-WINDi_r2_v1.2,2013-01-20 15:16:00,
2013-01-20 10:21:00,52.7,31.4,29.65,NW,320,3.0,12.0,44,0.00,,,0.00,541,HR-IXP-WINDi_r2_v1.2,2013-01-20 15:21:00,
2013-01-20 10:26:00,52.8,31.5,29.65,SW,231,4.0,12.0,44,0.00,,,0.00,545,HR-IXP-WINDi_r2_v1.2,2013-01-20 15:26:00,
2013-01-20 10:31:00,52.8,31.5,29.64,SSW,199,5.0,10.0,44,0.00,,,0.00,552,HR-IXP-WINDi_r2_v1.2,2013-01-20 15:31:00,
2013-01-20 10:36:00,53.3,31.3,29.64,WSW,246,1.0,10.0,43,0.00,,,0.00,555,HR-IXP-WINDi_r2_v1.2,2013-01-20 15:36:00,
2013-01-20 10:41:00,53.2,31.3,29.64,West,267,5.0,10.0,43,0.00,,,0.00,566,HR-IXP-WINDi_r2_v1.2,2013-01-20 15:41:00,
2013-01-20 10:47:00,53.7,32.3,29.64,West,265,2.0,10.0,44,0.00,,,0.00,570,HR-IXP-WINDi_r2_v1.2,2013-01-20 15:47:00,
2013-01-20 10:52:00,53.8,31.8,29.63,East,82,5.0,9.0,43,0.00,,,0.00,555,HR-IXP-WINDi_r2_v1.2,2013-01-20 15:52:00,
2013-01-20 10:57:00,53.9,31.9,29.62,SE,136,3.0,9.0,43,0.00,,,0.00,582,HR-IXP-WINDi_r2_v1.2,2013-01-20 15:57:00,
2013-01-20 11:02:00,54.1,32.1,29.62,WSW,256,7.0,15.0,43,0.00,,,0.00,591,HR-IXP-WINDi_r2_v1.2,2013-01-20 16:02:00,
2013-01-20 11:07:00,54.5,31.9,29.61,WSW,257,2.0,15.0,42,0.00,,,0.00,592,HR-IXP-WINDi_r2_v1.2,2013-01-20 16:07:00,
2013-01-20 11:13:00,55.1,31.8,29.61,ENE,69,1.0,9.0,41,0.00,,,0.00,598,HR-IXP-WINDi_r2_v1.2,2013-01-20 16:13:00,
2013-01-20 11:18:00,55.2,31.9,29.60,NW,315,5.0,11.0,41,0.00,,,0.00,601,HR-IXP-WINDi_r2_v1.2,2013-01-20 16:18:00,
2013-01-20 11:24:00,56.2,32.8,29.60,WSW,237,0.0,11.0,41,0.00,,,0.00,603,HR-IXP-WINDi_r2_v1.2,2013-01-20 16:24:00,
2013-01-20 11:29:00,56.9,31.5,29.59,NW,312,8.0,9.0,38,0.00,,,0.00,606,HR-IXP-WINDi_r2_v1.2,2013-01-20 16:29:00,
2013-01-20 11:34:00,56.6,31.3,29.59,ESE,121,9.0,12.0,38,0.00,,,0.00,612,HR-IXP-WINDi_r2_v1.2,2013-01-20 16:34:00,
2013-01-20 11:39:00,56.6,31.3,29.58,West,264,2.0,14.0,38,0.00,,,0.00,622,HR-IXP-WINDi_r2_v1.2,2013-01-20 16:39:00,
2013-01-20 11:44:00,56.9,31.5,29.58,ENE,78,3.0,14.0,38,0.00,,,0.00,550,HR-IXP-WINDi_r2_v1.2,2013-01-20 16:44:00,
2013-01-20 11:49:00,56.9,30.9,29.59,West,275,4.0,11.0,37,0.00,,,0.00,621,HR-IXP-WINDi_r2_v1.2,2013-01-20 16:49:00,
2013-01-20 11:55:00,57.0,31.0,29.58,SW,229,4.0,11.0,37,0.00,,,0.00,541,HR-IXP-WINDi_r2_v1.2,2013-01-20 16:55:00,
2013-01-20 12:00:00,56.5,30.5,29.58,West,268,3.0,9.0,37,0.00,,,0.00,478,HR-IXP-WINDi_r2_v1.2,2013-01-20 17:00:00,
2013-01-20 12:05:00,56.6,31.3,29.58,NW,316,4.0,9.0,38,0.00,,,0.00,490,HR-IXP-WINDi_r2_v1.2,2013-01-20 17:05:00,
2013-01-20 12:10:00,56.0,30.1,29.58,SE,124,2.0,10.0,37,0.00,,,0.00,353,HR-IXP-WINDi_r2_v1.2,2013-01-20 17:10:00,
2013-01-20 12:16:00,55.8,30.5,29.58,West,261,0.0,11.0,38,0.00,,,0.00,436,HR-IXP-WINDi_r2_v1.2,2013-01-20 17:16:00,
2013-01-20 12:21:00,56.4,30.4,29.59,ESE,117,1.0,11.0,37,0.00,,,0.00,374,HR-IXP-WINDi_r2_v1.2,2013-01-20 17:21:00,
2013-01-20 12:26:00,56.2,30.3,29.58,ENE,59,4.0,10.0,37,0.00,,,0.00,380,HR-IXP-WINDi_r2_v1.2,2013-01-20 17:26:00,
2013-01-20 12:31:00,55.7,29.8,29.59,SE,135,2.0,11.0,37,0.00,,,0.00,262,HR-IXP-WINDi_r2_v1.2,2013-01-20 17:31:00,
2013-01-20 12:37:00,55.1,29.9,29.59,SSW,201,1.0,11.0,38,0.00,,,0.00,214,HR-IXP-WINDi_r2_v1.2,2013-01-20 17:37:00,
2013-01-20 12:42:00,54.9,29.7,29.59,North,360,2.0,10.0,38,0.00,,,0.00,325,HR-IXP-WINDi_r2_v1.2,2013-01-20 17:42:00,
2013-01-20 12:47:00,55.0,29.8,29.59,SSE,159,3.0,8.0,38,0.00,,,0.00,306,HR-IXP-WINDi_r2_v1.2,2013-01-20 17:47:00,
2013-01-20 12:53:00,54.7,29.6,29.59,SW,231,1.0,8.0,38,0.00,,,0.00,207,HR-IXP-WINDi_r2_v1.2,2013-01-20 17:53:00,
2013-01-20 12:58:00,54.8,30.3,29.59,SSW,198,0.0,13.0,39,0.00,,,0.00,134,HR-IXP-WINDi_r2_v1.2,2013-01-20 17:58:00,
2013-01-20 13:03:00,54.6,30.1,29.59,WSW,250,2.0,13.0,39,0.00,,,0.00,83,HR-IXP-WINDi_r2_v1.2,2013-01-20 18:03:00,
2013-01-20 13:08:00,54.0,29.6,29.60,SW,217,4.0,13.0,39,0.00,,,0.00,60,HR-IXP-WINDi_r2_v1.2,2013-01-20 18:08:00,
2013-01-20 13:13:00,53.5,29.8,29.60,West,279,0.0,13.0,40,0.00,,,0.00,53,HR-IXP-WINDi_r2_v1.2,2013-01-20 18:13:00,
2013-01-20 13:19:00,53.2,29.5,29.60,WNW,282,0.0,10.0,40,0.00,,,0.00,77,HR-IXP-WINDi_r2_v1.2,2013-01-20 18:19:00,
2013-01-20 13:24:00,53.1,30.0,29.60,NW,304,0.0,2.0,41,0.00,,,0.00,62,HR-IXP-WINDi_r2_v1.2,2013-01-20 18:24:00,
2013-01-20 13:29:00,52.8,29.7,29.60,East,83,1.0,2.0,41,0.00,,,0.00,35,HR-IXP-WINDi_r2_v1.2,2013-01-20 18:29:00,
2013-01-20 13:34:00,52.6,30.1,29.60,NW,317,0.0,2.0,42,0.00,,,0.00,35,HR-IXP-WINDi_r2_v1.2,2013-01-20 18:34:00,
2013-01-20 13:40:00,52.4,30.0,29.61,West,269,0.0,2.0,42,0.00,,,0.00,28,HR-IXP-WINDi_r2_v1.2,2013-01-20 18:40:00,
2013-01-20 13:45:00,52.2,30.4,29.61,East,79,0.0,1.0,43,0.00,,,0.00,32,HR-IXP-WINDi_r2_v1.2,2013-01-20 18:45:00,
2013-01-20 13:50:00,52.2,30.4,29.61,SSW,204,0.0,2.0,43,0.00,,,0.00,28,HR-IXP-WINDi_r2_v1.2,2013-01-20 18:50:00,
2013-01-20 13:55:00,52.0,30.2,29.62,SW,219,0.0,2.0,43,0.00,,,0.00,30,HR-IXP-WINDi_r2_v1.2,2013-01-20 18:55:00,
2013-01-20 14:00:00,51.1,31.0,29.63,ESE,113,0.0,2.0,46,0.00,,,0.00,32,HR-IXP-WINDi_r2_v1.2,2013-01-20 19:00:00,
2013-01-20 14:05:00,50.2,31.2,29.63,ESE,121,0.0,1.0,48,0.00,,,0.00,46,HR-IXP-WINDi_r2_v1.2,2013-01-20 19:05:00,
2013-01-20 14:10:00,49.6,31.7,29.63,SE,132,0.0,0.0,50,0.00,,,0.00,63,HR-IXP-WINDi_r2_v1.2,2013-01-20 19:10:00,
2013-01-20 14:15:00,49.3,31.9,29.64,SE,132,0.0,0.0,51,0.00,,,0.00,47,HR-IXP-WINDi_r2_v1.2,2013-01-20 19:15:00,
2013-01-20 14:21:00,49.1,31.7,29.64,SE,132,0.0,0.0,51,0.00,,,0.00,39,HR-IXP-WINDi_r2_v1.2,2013-01-20 19:21:00,
2013-01-20 14:26:00,48.7,31.8,29.65,SE,127,0.0,0.0,52,0.00,,,0.00,62,HR-IXP-WINDi_r2_v1.2,2013-01-20 19:26:00,
2013-01-20 14:31:00,48.7,31.8,29.65,SE,127,0.0,0.0,52,0.00,,,0.00,69,HR-IXP-WINDi_r2_v1.2,2013-01-20 19:31:00,
2013-01-20 14:36:00,48.5,31.6,29.65,SE,133,0.0,0.0,52,0.00,,,0.00,58,HR-IXP-WINDi_r2_v1.2,2013-01-20 19:36:00,
2013-01-20 14:42:00,48.3,31.9,29.66,SE,131,0.0,0.0,53,0.00,,,0.00,49,HR-IXP-WINDi_r2_v1.2,2013-01-20 19:42:00,
2013-01-20 14:47:00,48.1,31.7,29.66,SE,136,0.0,0.0,53,0.00,,,0.00,54,HR-IXP-WINDi_r2_v1.2,2013-01-20 19:47:00,
2013-01-20 14:52:00,48.0,31.7,29.66,SE,146,0.0,1.0,53,0.00,,,0.00,65,HR-IXP-WINDi_r2_v1.2,2013-01-20 19:52:00,
2013-01-20 14:57:00,48.1,31.7,29.66,SE,144,0.0,1.0,53,0.00,,,0.00,76,HR-IXP-WINDi_r2_v1.2,2013-01-20 19:57:00,
2013-01-20 15:02:00,48.1,31.7,29.67,ESE,109,0.0,0.0,53,0.00,,,0.00,67,HR-IXP-WINDi_r2_v1.2,2013-01-20 20:02:00,
2013-01-20 15:07:00,47.9,30.1,29.67,WNW,283,0.0,1.0,50,0.00,,,0.00,69,HR-IXP-WINDi_r2_v1.2,2013-01-20 20:07:00,
2013-01-20 15:12:00,48.5,29.7,29.67,SSE,152,0.0,1.0,48,0.00,,,0.00,88,HR-IXP-WINDi_r2_v1.2,2013-01-20 20:12:00,
2013-01-20 15:17:00,49.1,29.2,29.67,SW,215,0.0,1.0,46,0.00,,,0.00,90,HR-IXP-WINDi_r2_v1.2,2013-01-20 20:17:00,
2013-01-20 15:22:00,49.5,28.5,29.67,SE,127,0.0,1.0,44,0.00,,,0.00,67,HR-IXP-WINDi_r2_v1.2,2013-01-20 20:22:00,
2013-01-20 15:28:00,49.4,27.3,29.67,SE,130,0.0,1.0,42,0.00,,,0.00,60,HR-IXP-WINDi_r2_v1.2,2013-01-20 20:28:00,
2013-01-20 15:33:00,49.4,26.7,29.68,ESE,103,0.0,0.0,41,0.00,,,0.00,49,HR-IXP-WINDi_r2_v1.2,2013-01-20 20:33:00,
2013-01-20 15:38:00,49.3,26.0,29.68,ESE,108,0.0,0.0,40,0.00,,,0.00,33,HR-IXP-WINDi_r2_v1.2,2013-01-20 20:38:00,
2013-01-20 15:43:00,49.1,25.8,29.68,SE,129,0.0,0.0,40,0.00,,,0.00,32,HR-IXP-WINDi_r2_v1.2,2013-01-20 20:43:00,
2013-01-20 15:48:00,48.9,25.6,29.68,NW,319,0.0,1.0,40,0.00,,,0.00,32,HR-IXP-WINDi_r2_v1.2,2013-01-20 20:48:00,
2013-01-20 15:54:00,48.7,25.4,29.68,West,271,0.0,1.0,40,0.00,,,0.00,28,HR-IXP-WINDi_r2_v1.2,2013-01-20 20:54:00,
2013-01-20 15:59:00,48.6,25.4,29.68,West,276,0.0,1.0,40,0.00,,,0.00,26,HR-IXP-WINDi_r2_v1.2,2013-01-20 20:59:00,
2013-01-20 16:04:00,48.4,24.6,29.69,ESE,121,0.0,1.0,39,0.00,,,0.00,23,HR-IXP-WINDi_r2_v1.2,2013-01-20 21:04:00,
2013-01-20 16:09:00,48.3,23.2,29.69,SE,125,0.0,1.0,37,0.00,,,0.00,19,HR-IXP-WINDi_r2_v1.2,2013-01-20 21:09:00,
2013-01-20 16:15:00,48.1,23.1,29.69,ESE,111,0.0,1.0,37,0.00,,,0.00,16,HR-IXP-WINDi_r2_v1.2,2013-01-20 21:15:00,
2013-01-20 16:20:00,47.8,22.1,29.70,West,269,0.0,1.0,36,0.00,,,0.00,12,HR-IXP-WINDi_r2_v1.2,2013-01-20 21:20:00,
2013-01-20 16:25:00,47.5,20.5,29.70,NW,318,0.0,1.0,34,0.00,,,0.00,9,HR-IXP-WINDi_r2_v1.2,2013-01-20 21:25:00,
2013-01-20 16:30:00,47.3,21.7,29.71,WNW,285,0.0,1.0,36,0.00,,,0.00,7,HR-IXP-WINDi_r2_v1.2,2013-01-20 21:30:00,
2013-01-20 16:36:00,46.9,23.8,29.72,SSW,201,0.0,0.0,40,0.00,,,0.00,5,HR-IXP-WINDi_r2_v1.2,2013-01-20 21:36:00,
2013-01-20 16:41:00,46.3,23.9,29.72,SW,221,0.0,0.0,41,0.00,,,0.00,0,HR-IXP-WINDi_r2_v1.2,2013-01-20 21:41:00,
2013-01-20 16:46:00,45.9,22.3,29.72,SW,225,0.0,0.0,39,0.00,,,0.00,0,HR-IXP-WINDi_r2_v1.2,2013-01-20 21:46:00,
2013-01-20 16:51:00,45.5,20.7,29.73,WSW,242,0.0,0.0,37,0.00,,,0.00,0,HR-IXP-WINDi_r2_v1.2,2013-01-20 21:51:00,
2013-01-20 16:56:00,45.2,20.5,29.73,WSW,241,0.0,0.0,37,0.00,,,0.00,0,HR-IXP-WINDi_r2_v1.2,2013-01-20 21:56:00,
2013-01-20 17:01:00,44.9,19.6,29.74,SW,217,0.0,0.0,36,0.00,,,0.00,0,HR-IXP-WINDi_r2_v1.2,2013-01-20 22:01:00,
2013-01-20 17:07:00,44.6,18.6,29.75,SW,217,0.0,0.0,35,0.00,,,0.00,0,HR-IXP-WINDi_r2_v1.2,2013-01-20 22:07:00,
2013-01-20 17:12:00,44.2,18.3,29.76,West,259,0.0,1.0,35,0.00,,,0.00,0,HR-IXP-WINDi_r2_v1.2,2013-01-20 22:12:00,
2013-01-20 17:17:00,43.8,17.9,29.76,SW,232,0.0,1.0,35,0.00,,,0.00,0,HR-IXP-WINDi_r2_v1.2,2013-01-20 22:17:00,
2013-01-20 17:22:00,43.4,18.2,29.77,SW,229,0.0,1.0,36,0.00,,,0.00,0,HR-IXP-WINDi_r2_v1.2,2013-01-20 22:22:00,
2013-01-20 17:27:00,43.3,18.1,29.77,SW,223,0.0,1.0,36,0.00,,,0.00,0,HR-IXP-WINDi_r2_v1.2,2013-01-20 22:27:00,
2013-01-20 17:32:00,43.1,18.6,29.78,SW,214,0.0,1.0,37,0.00,,,0.00,0,HR-IXP-WINDi_r2_v1.2,2013-01-20 22:32:00,
2013-01-20 17:38:00,42.8,18.3,29.79,SW,219,0.0,1.0,37,0.00,,,0.00,0,HR-IXP-WINDi_r2_v1.2,2013-01-20 22:38:00,
2013-01-20 17:43:00,42.5,18.1,29.78,SSW,197,0.0,0.0,37,0.00,,,0.00,0,HR-IXP-WINDi_r2_v1.2,2013-01-20 22:43:00,
2013-01-20 17:48:00,42.1,18.3,29.79,WSW,257,0.0,0.0,38,0.00,,,0.00,0,HR-IXP-WINDi_r2_v1.2,2013-01-20 22:48:00,
2013-01-20 17:53:00,41.8,18.7,29.79,WSW,238,0.0,0.0,39,0.00,,,0.00,0,HR-IXP-WINDi_r2_v1.2,2013-01-20 22:53:00,
2013-01-20 17:58:00,41.4,18.3,29.81,West,275,0.0,1.0,39,0.00,,,0.00,0,HR-IXP-WINDi_r2_v1.2,2013-01-20 22:58:00,
2013-01-20 18:03:00,41.1,18.6,29.81,West,272,0.0,1.0,40,0.00,,,0.00,0,HR-IXP-WINDi_r2_v1.2,2013-01-20 23:03:00,
2013-01-20 18:09:00,40.6,18.7,29.81,East,80,0.0,1.0,41,0.00,,,0.00,0,HR-IXP-WINDi_r2_v1.2,2013-01-20 23:09:00,
2013-01-20 18:14:00,40.2,18.4,29.81,ESE,111,0.0,1.0,41,0.00,,,0.00,0,HR-IXP-WINDi_r2_v1.2,2013-01-20 23:14:00,
2013-01-20 18:19:00,39.9,18.7,29.82,SE,136,0.0,0.0,42,0.00,,,0.00,0,HR-IXP-WINDi_r2_v1.2,2013-01-20 23:19:00,
2013-01-20 18:24:00,39.7,18.5,29.82,SE,141,0.0,0.0,42,0.00,,,0.00,0,HR-IXP-WINDi_r2_v1.2,2013-01-20 23:24:00,
2013-01-20 18:30:00,39.4,18.8,29.83,SE,141,0.0,0.0,43,0.00,,,0.00,0,HR-IXP-WINDi_r2_v1.2,2013-01-20 23:30:00,
2013-01-20 18:35:00,39.1,18.5,29.83,SE,136,0.0,0.0,43,0.00,,,0.00,0,HR-IXP-WINDi_r2_v1.2,2013-01-20 23:35:00,
2013-01-20 18:40:00,38.8,18.2,29.83,SW,223,0.0,1.0,43,0.00,,,0.00,0,HR-IXP-WINDi_r2_v1.2,2013-01-20 23:40:00,
2013-01-20 18:45:00,38.5,18.0,29.84,SW,216,0.0,1.0,43,0.00,,,0.00,0,HR-IXP-WINDi_r2_v1.2,2013-01-20 23:45:00,
2013-01-20 18:50:00,38.2,17.7,29.84,West,271,0.0,1.0,43,0.00,,,0.00,0,HR-IXP-WINDi_r2_v1.2,2013-01-20 23:50:00,
2013-01-20 18:56:00,37.9,17.4,29.84,North,355,0.0,1.0,43,0.00,,,0.00,0,HR-IXP-WINDi_r2_v1.2,2013-01-20 23:56:00,
2013-01-20 19:01:00,37.7,17.2,29.85,WNW,298,0.0,0.0,43,0.00,,,0.00,0,HR-IXP-WINDi_r2_v1.2,2013-01-21 00:01:00,
2013-01-20 19:06:00,37.5,17.0,29.85,SE,128,0.0,0.0,43,0.00,,,0.00,0,HR-IXP-WINDi_r2_v1.2,2013-01-21 00:06:00,
2013-01-20 19:11:00,37.2,17.3,29.85,ESE,107,0.0,0.0,44,0.00,,,0.00,0,HR-IXP-WINDi_r2_v1.2,2013-01-21 00:11:00,
2013-01-20 19:16:00,37.0,17.1,29.85,ESE,107,0.0,0.0,44,0.00,,,0.00,0,HR-IXP-WINDi_r2_v1.2,2013-01-21 00:16:00,
2013-01-20 19:22:00,36.8,16.9,29.85,SE,126,0.0,0.0,44,0.00,,,0.00,0,HR-IXP-WINDi_r2_v1.2,2013-01-21 00:22:00,
2013-01-20 19:27:00,36.6,16.8,29.85,SE,130,0.0,0.0,44,0.00,,,0.00,0,HR-IXP-WINDi_r2_v1.2,2013-01-21 00:27:00,
2013-01-20 19:32:00,36.4,16.6,29.86,SE,130,0.0,0.0,44,0.00,,,0.00,0,HR-IXP-WINDi_r2_v1.2,2013-01-21 00:32:00,
2013-01-20 19:37:00,36.2,16.4,29.86,SE,136,0.0,0.0,44,0.00,,,0.00,0,HR-IXP-WINDi_r2_v1.2,2013-01-21 00:37:00,
2013-01-20 19:42:00,36.1,16.3,29.87,SE,134,0.0,0.0,44,0.00,,,0.00,0,HR-IXP-WINDi_r2_v1.2,2013-01-21 00:42:00,
2013-01-20 19:47:00,35.8,16.0,29.87,SE,133,0.0,0.0,44,0.00,,,0.00,0,HR-IXP-WINDi_r2_v1.2,2013-01-21 00:47:00,
2013-01-20 19:53:00,35.6,15.9,29.87,SE,129,0.0,0.0,44,0.00,,,0.00,0,HR-IXP-WINDi_r2_v1.2,2013-01-21 00:53:00,
2013-01-20 19:58:00,35.4,15.7,29.87,SE,133,0.0,0.0,44,0.00,,,0.00,0,HR-IXP-WINDi_r2_v1.2,2013-01-21 00:58:00,
2013-01-20 20:03:00,35.3,15.1,29.87,SE,135,0.0,0.0,43,0.00,,,0.00,0,HR-IXP-WINDi_r2_v1.2,2013-01-21 01:03:00,
2013-01-20 20:08:00,35.0,14.8,29.88,SE,127,0.0,0.0,43,0.00,,,0.00,0,HR-IXP-WINDi_r2_v1.2,2013-01-21 01:08:00,
2013-01-20 20:13:00,34.9,14.7,29.88,SE,131,0.0,0.0,43,0.00,,,0.00,0,HR-IXP-WINDi_r2_v1.2,2013-01-21 01:13:00,
2013-01-20 20:19:00,34.7,14.5,29.88,SE,130,0.0,0.0,43,0.00,,,0.00,0,HR-IXP-WINDi_r2_v1.2,2013-01-21 01:19:00,
2013-01-20 20:24:00,34.5,14.3,29.89,SE,131,0.0,0.0,43,0.00,,,0.00,0,HR-IXP-WINDi_r2_v1.2,2013-01-21 01:24:00,
2013-01-20 20:29:00,34.3,14.1,29.89,East,90,0.0,0.0,43,0.00,,,0.00,0,HR-IXP-WINDi_r2_v1.2,2013-01-21 01:29:00,
2013-01-20 20:34:00,34.1,14.0,29.90,SW,227,0.0,1.0,43,0.00,,,0.00,0,HR-IXP-WINDi_r2_v1.2,2013-01-21 01:34:00,
2013-01-20 20:40:00,33.9,13.8,29.90,NNW,327,0.0,1.0,43,0.00,,,0.00,0,HR-IXP-WINDi_r2_v1.2,2013-01-21 01:40:00,
2013-01-20 20:45:00,33.7,13.6,29.90,West,259,0.0,1.0,43,0.00,,,0.00,0,HR-IXP-WINDi_r2_v1.2,2013-01-21 01:45:00,
2013-01-20 20:50:00,33.5,13.9,29.91,SW,225,0.0,1.0,44,0.00,,,0.00,0,HR-IXP-WINDi_r2_v1.2,2013-01-21 01:50:00,
2013-01-20 20:55:00,33.3,13.2,29.91,West,276,0.0,1.0,43,0.00,,,0.00,0,HR-IXP-WINDi_r2_v1.2,2013-01-21 01:55:00,
2013-01-20 21:00:00,33.2,13.2,29.92,West,273,0.0,1.0,43,0.00,,,0.00,0,HR-IXP-WINDi_r2_v1.2,2013-01-21 02:00:00,
2013-01-20 21:05:00,33.0,13.0,29.92,SW,225,0.0,1.0,43,0.00,,,0.00,0,HR-IXP-WINDi_r2_v1.2,2013-01-21 02:05:00,
2013-01-20 21:10:00,32.9,12.9,29.92,West,269,0.0,1.0,43,0.00,,,0.00,0,HR-IXP-WINDi_r2_v1.2,2013-01-21 02:10:00,
2013-01-20 21:15:00,32.8,12.3,29.93,ESE,121,0.0,1.0,42,0.00,,,0.00,0,HR-IXP-WINDi_r2_v1.2,2013-01-21 02:15:00,
2013-01-20 21:21:00,32.6,12.1,29.93,SE,129,0.0,0.0,42,0.00,,,0.00,0,HR-IXP-WINDi_r2_v1.2,2013-01-21 02:21:00,
2013-01-20 21:26:00,32.5,12.0,29.92,SE,131,0.0,0.0,42,0.00,,,0.00,0,HR-IXP-WINDi_r2_v1.2,2013-01-21 02:26:00,
2013-01-20 21:31:00,32.5,12.0,29.93,NE,43,0.0,0.0,42,0.00,,,0.00,0,HR-IXP-WINDi_r2_v1.2,2013-01-21 02:31:00,
2013-01-20 21:36:00,32.3,11.8,29.92,SSW,208,0.0,0.0,42,0.00,,,0.00,0,HR-IXP-WINDi_r2_v1.2,2013-01-21 02:36:00,
2013-01-20 21:42:00,32.3,11.8,29.92,SW,228,0.0,0.0,42,0.00,,,0.00,0,HR-IXP-WINDi_r2_v1.2,2013-01-21 02:42:00,
2013-01-20 21:47:00,32.1,11.6,29.93,SW,215,0.0,0.0,42,0.00,,,0.00,0,HR-IXP-WINDi_r2_v1.2,2013-01-21 02:47:00,
2013-01-20 21:52:00,32.0,11.5,29.93,SW,225,0.0,0.0,42,0.00,,,0.00,0,HR-IXP-WINDi_r2_v1.2,2013-01-21 02:52:00,
2013-01-20 21:57:00,32.0,11.5,29.93,SW,227,0.0,0.0,42,0.00,,,0.00,0,HR-IXP-WINDi_r2_v1.2,2013-01-21 02:57:00,
2013-01-20 22:03:00,31.9,11.4,29.93,SW,229,0.0,1.0,42,0.00,,,0.00,0,HR-IXP-WINDi_r2_v1.2,2013-01-21 03:03:00,
2013-01-20 22:08:00,31.8,11.9,29.93,North,350,0.0,1.0,43,0.00,,,0.00,0,HR-IXP-WINDi_r2_v1.2,2013-01-21 03:08:00,
2013-01-20 22:13:00,31.7,11.8,29.94,WSW,246,0.0,0.0,43,0.00,,,0.00,0,HR-IXP-WINDi_r2_v1.2,2013-01-21 03:13:00,
2013-01-20 22:18:00,31.6,11.7,29.94,WSW,247,0.0,0.0,43,0.00,,,0.00,0,HR-IXP-WINDi_r2_v1.2,2013-01-21 03:18:00,
2013-01-20 22:24:00,31.6,11.7,29.93,West,262,0.0,0.0,43,0.00,,,0.00,0,HR-IXP-WINDi_r2_v1.2,2013-01-21 03:24:00,
2013-01-20 22:29:00,31.5,11.6,29.94,West,263,0.0,0.0,43,0.00,,,0.00,0,HR-IXP-WINDi_r2_v1.2,2013-01-21 03:29:00,
2013-01-20 22:34:00,31.5,11.6,29.94,West,263,0.0,0.0,43,0.00,,,0.00,0,HR-IXP-WINDi_r2_v1.2,2013-01-21 03:34:00,
2013-01-20 22:39:00,31.4,11.5,29.94,West,269,0.0,0.0,43,0.00,,,0.00,0,HR-IXP-WINDi_r2_v1.2,2013-01-21 03:39:00,
2013-01-20 22:44:00,31.3,11.4,29.94,WSW,249,0.0,1.0,43,0.00,,,0.00,0,HR-IXP-WINDi_r2_v1.2,2013-01-21 03:44:00,
2013-01-20 22:50:00,31.2,11.9,29.94,WSW,238,0.0,1.0,44,0.00,,,0.00,0,HR-IXP-WINDi_r2_v1.2,2013-01-21 03:50:00,
2013-01-20 22:55:00,31.2,11.9,29.94,WSW,252,0.0,0.0,44,0.00,,,0.00,0,HR-IXP-WINDi_r2_v1.2,2013-01-21 03:55:00,
2013-01-20 23:00:00,31.1,11.8,29.94,WSW,252,0.0,1.0,44,0.00,,,0.00,0,HR-IXP-WINDi_r2_v1.2,2013-01-21 04:00:00,
2013-01-20 23:05:00,31.0,11.7,29.94,WSW,248,0.0,1.0,44,0.00,,,0.00,0,HR-IXP-WINDi_r2_v1.2,2013-01-21 04:05:00,
2013-01-20 23:10:00,31.0,11.7,29.94,WSW,250,0.0,0.0,44,0.00,,,0.00,0,HR-IXP-WINDi_r2_v1.2,2013-01-21 04:10:00,
2013-01-20 23:15:00,30.9,11.6,29.94,WSW,250,0.0,0.0,44,0.00,,,0.00,0,HR-IXP-WINDi_r2_v1.2,2013-01-21 04:15:00,
2013-01-20 23:20:00,30.9,12.1,29.95,WSW,250,0.0,0.0,45,0.00,,,0.00,0,HR-IXP-WINDi_r2_v1.2,2013-01-21 04:20:00,
2013-01-20 23:25:00,30.8,12.0,29.95,WNW,284,0.0,0.0,45,0.00,,,0.00,0,HR-IXP-WINDi_r2_v1.2,2013-01-21 04:25:00,
2013-01-20 23:30:00,30.7,11.9,29.95,West,267,0.0,1.0,45,0.00,,,0.00,0,HR-IXP-WINDi_r2_v1.2,2013-01-21 04:30:00,
2013-01-20 23:35:00,30.7,11.9,29.95,WSW,237,0.0,1.0,45,0.00,,,0.00,0,HR-IXP-WINDi_r2_v1.2,2013-01-21 04:35:00,
2013-01-20 23:41:00,30.6,11.8,29.95,WSW,251,0.0,1.0,45,0.00,,,0.00,0,HR-IXP-WINDi_r2_v1.2,2013-01-21 04:41:00,
2013-01-20 23:46:00,30.6,12.3,29.95,SW,225,0.0,0.0,46,0.00,,,0.00,0,HR-IXP-WINDi_r2_v1.2,2013-01-21 04:46:00,
2013-01-20 23:51:00,30.5,12.2,29.95,SW,225,0.0,0.0,46,0.00,,,0.00,0,HR-IXP-WINDi_r2_v1.2,2013-01-21 04:51:00,
2013-01-20 23:56:00,30.5,12.2,29.95,SW,223,0.0,0.0,46,0.00,,,0.00,0,HR-IXP-WINDi_r2_v1.2,2013-01-21 04:56:00,